ホイップル彗星

36P/Whipple (2020)

English version
Home page
Updated on June 14, 2021

---------------------------------------------------------------------

・ プロフィール

・ 写真集

・ 軌道要素

Epoch 2020 May 31.0 TT = JDT 2459000.5
T 2020 May 31.62899 TT                                  Rudenko
q   3.0216216            (2000.0)            P               Q
n   0.11742013     Peri.  200.76978     +0.92316122     -0.38437193
a   4.1302310      Node   181.86338     +0.37256009     +0.89820340
e   0.2684134      Incl.    9.95270     +0.09472245     +0.21328121
P   8.39
From 920 observations 1955 July 27-2021 Feb. 17, mean residual 0".6.
     Nongravitational parameters A1 = +0.63, A2 = -0.0499.

・ 光度変化

        m1 = 8.0 + 5 logΔ + 17.0 log r

---------------------------------------------------------------------

軌道要素はM.P.E.C. 2021-F20に掲載されたものです。
光度グラフはComet for Windowsで作成したものです。

---------------------------------------------------------------------

Copyright(C) Seiichi Yoshida (comet@aerith.net). All rights reserved.